Temp
-19 -18 -17 -17 -17 -17 -18 -18 -18 -18 -17 -17 -17 -16 -15 -15 -15 -15 -15 -15 -14 -14 -13 -12 -12 -12 -12 -11 -11 -11 -10 -10 -10 -11 -11 -10 -10 -10 -10 -10 -10 -11 -11 -11
-19 -18 -18 -18 -18 -18 -18 -18 -17 -17 -17 -17 -17 -17 -16 -15 -15 -15 -15 -15 -14 -14 -13 -13 -12 -12 -12 -12 -11 -11 -11 -11 -11 -10 -10 -10 -11 -11 -11 -11 -12 -11 -11 -11
-18 -18 -18 -18 -18 -18 -17 -18 -18 -18 -17 -17 -17 -16 -16 -15 -15 -15 -14 -15 -14 -14 -13 -13 -12 -13 -12 -12 -11 -11 -11 -11 -11 -10 -10 -10 -10 -10 -11 -12 -12 -12 -11 -11
-19 -19 -18 -18 -18 -18 -18 -18 -18 -17 -17 -17 -17 -16 -16 -16 -15 -16 -16 -15 -14 -14 -13 -13 -13 -13 -13 -12 -11 -11 -11 -11 -11 -10 -10 -10 -10 -11 -11 -11 -12 -12 -12 -11
-19 -19 -18 -18 -18 -18 -18 -19 -18 -17 -18 -17 -17 -17 -15 -15 -14 -14 -15 -15 -14 -13 -13 -13 -13 -13 -12 -12 -11 -11 -11 -11 -11 -10 -10 -11 -11 -11 -11 -11 -11 -11 -12 -11
-19 -19 -18 -18 -18 -18 -18 -18 -18 -18 -18 -18 -17 -17 -15 -15 -15 -15 -15 -14 -14 -14 -13 -13 -12 -12 -12 -12 -12 -11 -11 -11 -11 -11 -11 -11 -12 -12 -12 -11 -11 -11 -11 -12
-20 -19 -18 -19 -18 -19 -19 -19 -18 -19 -19 -17 -18 -17 -15 -15 -15 -15 -15 -15 -15 -14 -14 -13 -13 -13 -12 -12 -12 -12 -11 -11 -11 -12 -12 -12 -12 -12 -12 -11 -11 -11 -11 -12
-19 -20 -19 -18 -18 -18 -18 -18 -18 -18 -18 -17 -18 -17 -16 -15 -15 -15 -15 -15 -15 -15 -14 -14 -13 -13 -13 -12 -12 -12 -12 -12 -12 -12 -12 -12 -12 -12 -12 -12 -12 -12 -12 -12
-19 -19 -19 -18 -19 -18 -18 -18 -18 -19 -18 -18 -18 -17 -16 -16 -15 -15 -15 -15 -15 -15 -14 -14 -13 -13 -13 -13 -12 -12 -12 -12 -12 -12 -12 -12 -12 -12 -12 -12 -12 -12 -12 -12
-19 -18 -18 -18 -18 -18 -18 -18 -18 -18 -19 -18 -17 -17 -16 -16 -16 -16 -16 -16 -15 -15 -14 -14 -14 -13 -13 -13 -13 -13 -12 -12 -12 -12 -12 -12 -12 -12 -12 -12 -12 -12 -12 -12
-18 -18 -17 -17 -17 -18 -18 -18 -18 -18 -19 -19 -18 -17 -17 -16 -16 -16 -16 -15 -15 -15 -15 -14 -14 -14 -13 -13 -13 -13 -13 -12 -12 -12 -12 -12 -12 -12 -12 -12 -12 -12 -12 -12
-18 -18 -18 -18 -17 -18 -18 -18 -18 -18 -18 -19 -18 -17 -17 -17 -16 -16 -16 -16 -15 -15 -15 -14 -14 -14 -13 -13 -13 -13 -13 -12 -12 -13 -13 -12 -12 -12 -12 -12 -12 -12 -12 -12
-18 -18 -18 -18 -17 -17 -18 -18 -18 -18 -18 -18 -18 -17 -18 -17 -17 -17 -16 -16 -15 -15 -15 -15 -15 -14 -14 -13 -14 -13 -13 -13 -13 -13 -13 -13 -13 -13 -13 -12 -13 -13 -13 -13
-18 -18 -18 -18 -18 -18 -18 -18 -18 -18 -18 -18 -18 -17 -18 -18 -17 -17 -17 -16 -16 -16 -15 -15 -15 -15 -14 -14 -14 -14 -14 -13 -13 -13 -13 -13 -13 -13 -13 -13 -13 -13 -13 -13
-19 -19 -19 -19 -18 -18 -18 -18 -18 -17 -18 -17 -18 -17 -17 -17 -17 -17 -17 -16 -16 -16 -16 -15 -15 -15 -15 -15 -14 -14 -14 -14 -13 -13 -13 -13 -13 -13 -13 -13 -13 -13 -14 -14
-20 -20 -19 -19 -19 -19 -19 -18 -18 -18 -17 -17 -17 -17 -17 -18 -18 -18 -17 -17 -17 -16 -16 -16 -15 -15 -15 -14 -14 -14 -14 -14 -14 -14 -14 -13 -13 -13 -13 -13 -14 -14 -14 -14
-20 -20 -20 -20 -19 -19 -19 -19 -19 -18 -18 -18 -17 -18 -17 -18 -17 -18 -18 -17 -16 -16 -16 -16 -15 -15 -15 -15 -15 -14 -15 -14 -14 -14 -14 -14 -14 -14 -14 -14 -14 -14 -14 -15
-20 -20 -20 -20 -20 -19 -19 -19 -19 -18 -18 -18 -18 -18 -17 -18 -18 -18 -17 -17 -17 -16 -16 -16 -15 -15 -15 -15 -15 -15 -15 -15 -15 -15 -15 -14 -15 -15 -15 -14 -15 -15 -15 -15
-20 -20 -20 -20 -20 -19 -19 -19 -19 -18 -18 -18 -18 -18 -18 -18 -18 -17 -17 -17 -16 -16 -16 -16 -16 -16 -16 -15 -15 -15 -15 -15 -15 -15 -15 -15 -15 -15 -15 -15 -15 -15 -15 -15
-20 -20 -20 -19 -19 -19 -19 -19 -19 -19 -18 -18 -18 -18 -18 -18 -17 -17 -17 -17 -17 -17 -17 -16 -16 -16 -16 -16 -16 -15 -15 -15 -15 -16 -15 -15 -16 -16 -16 -16 -16 -16 -16 -16
-20 -19 -19 -19 -19 -19 -19 -19 -19 -19 -19 -18 -18 -18 -18 -17 -17 -17 -17 -17 -17 -17 -17 -17 -17 -16 -16 -16 -16 -16 -16 -16 -16 -16 -16 -16 -16 -16 -16 -16 -16 -16 -16 -16
-20 -19 -19 -19 -19 -19 -19 -19 -19 -19 -19 -19 -18 -18 -18 -17 -17 -17 -18 -18 -17 -17 -17 -17 -17 -16 -16 -16 -16 -16 -16 -16 -16 -16 -16 -16 -16 -16 -16 -16 -16 -16 -16 -16
-20 -20 -19 -19 -19 -19 -19 -19 -19 -19 -19 -18 -18 -18 -18 -18 -18 -18 -18 -18 -18 -18 -17 -17 -17 -17 -17 -17 -17 -17 -17 -17 -17 -17 -17 -17 -17 -17 -17 -17 -17 -17 -17 -17
-20 -20 -19 -19 -19 -19 -19 -19 -19 -19 -18 -18 -18 -18 -18 -18 -18 -18 -18 -18 -18 -18 -18 -18 -17 -17 -17 -17 -17 -17 -17 -17 -17 -17 -17 -17 -18 -17 -17 -17 -17 -17 -17 -17
-20 -19 -19 -19 -19 -19 -19 -19 -19 -19 -18 -18 -18 -18 -18 -18 -18 -18 -18 -18 -18 -18 -18 -18 -18 -17 -17 -17 -17 -17 -17 -17 -17 -17 -18 -18 -18 -18 -18 -18 -18 -18 -18 -18
-20 -20 -19 -19 -19 -19 -19 -19 -19 -19 -19 -18 -18 -18 -18 -18 -18 -18 -18 -18 -18 -18 -18 -18 -18 -18 -18 -18 -18 -18 -18 -17 -18 -18 -18 -18 -18 -18 -18 -18 -18 -18 -18 -18
Height
5648 5657 5669 5680 5685 5691 5696 5701 5707 5714 5721 5727 5737 5741 5744 5750 5757 5764 5771 5776 5781 5786 5790 5796 5801 5805 5808 5812 5815 5816 5818 5822 5826 5826 5826 5826 5826 5826 5826 5827 5827 5825 5824 5823
5649 5658 5667 5675 5681 5687 5692 5699 5705 5708 5712 5719 5726 5733 5737 5744 5752 5757 5763 5769 5774 5779 5785 5790 5796 5801 5804 5804 5807 5809 5810 5811 5813 5815 5818 5821 5821 5820 5818 5817 5816 5813 5813 5814
5647 5659 5664 5672 5678 5684 5691 5697 5700 5705 5710 5714 5721 5725 5732 5740 5744 5750 5757 5763 5767 5773 5778 5783 5789 5792 5794 5796 5799 5801 5803 5805 5806 5808 5809 5809 5810 5813 5813 5813 5811 5807 5803 5802
5647 5656 5663 5670 5677 5682 5690 5693 5694 5700 5706 5711 5715 5720 5727 5733 5739 5746 5751 5756 5760 5766 5771 5776 5782 5785 5787 5790 5792 5794 5796 5797 5798 5799 5801 5801 5801 5801 5802 5803 5804 5802 5798 5795
5650 5656 5663 5669 5674 5682 5687 5687 5691 5697 5699 5702 5707 5712 5722 5726 5732 5739 5746 5749 5754 5760 5765 5769 5773 5776 5780 5783 5785 5786 5788 5789 5790 5791 5791 5792 5792 5792 5792 5792 5793 5793 5790 5788
5650 5657 5661 5666 5671 5677 5680 5685 5688 5692 5692 5694 5705 5708 5715 5723 5730 5732 5736 5743 5748 5753 5757 5761 5764 5768 5771 5773 5776 5778 5779 5781 5782 5782 5783 5783 5784 5784 5784 5783 5783 5782 5781 5780
5647 5653 5660 5664 5669 5674 5678 5682 5684 5686 5687 5692 5698 5699 5711 5714 5721 5726 5731 5736 5740 5745 5750 5753 5756 5760 5763 5766 5767 5769 5771 5773 5773 5774 5775 5775 5775 5775 5774 5774 5774 5773 5771 5769
5649 5654 5658 5663 5668 5672 5674 5677 5681 5682 5683 5689 5692 5694 5702 5709 5715 5719 5725 5730 5734 5739 5743 5746 5749 5752 5755 5757 5759 5761 5762 5764 5764 5764 5766 5766 5766 5766 5765 5765 5764 5763 5761 5759
5650 5654 5658 5661 5663 5668 5667 5674 5679 5679 5679 5683 5687 5693 5698 5703 5708 5714 5719 5722 5727 5731 5734 5738 5740 5743 5745 5748 5750 5751 5753 5754 5755 5756 5757 5757 5756 5756 5756 5755 5754 5753 5750 5748
5650 5653 5655 5658 5662 5666 5669 5672 5674 5674 5675 5677 5682 5687 5691 5697 5701 5707 5711 5715 5719 5722 5725 5728 5731 5734 5736 5738 5739 5741 5743 5744 5745 5746 5747 5747 5747 5747 5746 5746 5745 5743 5741 5739
5650 5652 5653 5655 5660 5664 5666 5668 5671 5671 5672 5674 5677 5683 5686 5690 5694 5699 5703 5707 5710 5713 5716 5719 5721 5724 5726 5728 5730 5732 5733 5735 5736 5737 5737 5738 5738 5738 5738 5737 5736 5734 5732 5730
5649 5650 5651 5653 5656 5659 5662 5664 5666 5667 5670 5671 5673 5678 5682 5684 5687 5691 5696 5699 5702 5705 5708 5710 5713 5715 5717 5719 5720 5722 5724 5725 5727 5727 5728 5729 5729 5729 5729 5728 5727 5725 5723 5721
5648 5650 5651 5653 5656 5656 5657 5660 5662 5663 5666 5667 5668 5672 5675 5678 5682 5685 5687 5691 5694 5696 5698 5700 5703 5706 5708 5710 5711 5713 5715 5717 5718 5718 5719 5720 5720 5720 5720 5719 5718 5717 5716 5714
5646 5647 5649 5650 5651 5652 5653 5655 5657 5659 5661 5664 5665 5666 5671 5673 5675 5678 5681 5683 5686 5688 5690 5692 5695 5697 5699 5702 5703 5705 5706 5708 5709 5710 5710 5710 5711 5711 5711 5710 5709 5709 5707 5705
5642 5643 5644 5645 5646 5648 5649 5650 5652 5655 5658 5658 5660 5662 5666 5669 5671 5674 5676 5677 5680 5682 5684 5686 5689 5690 5692 5694 5696 5698 5699 5700 5701 5701 5702 5702 5702 5703 5702 5701 5702 5701 5699 5697
5637 5639 5640 5641 5642 5643 5644 5646 5648 5650 5651 5653 5655 5655 5658 5663 5666 5669 5670 5671 5675 5677 5679 5681 5682 5684 5686 5687 5689 5690 5692 5692 5693 5693 5694 5694 5694 5694 5694 5694 5694 5692 5691 5689
5633 5634 5635 5636 5637 5638 5641 5641 5642 5645 5647 5648 5648 5653 5652 5656 5661 5663 5664 5666 5669 5671 5673 5674 5676 5678 5680 5680 5681 5683 5684 5685 5685 5686 5687 5687 5686 5687 5686 5686 5685 5684 5682 5681
5627 5628 5630 5631 5632 5634 5636 5637 5638 5639 5640 5643 5645 5646 5648 5652 5655 5656 5659 5661 5663 5666 5668 5669 5670 5671 5672 5674 5675 5677 5677 5678 5679 5679 5679 5679 5680 5680 5679 5678 5677 5676 5675 5673
5622 5624 5625 5627 5628 5630 5632 5632 5634 5635 5636 5638 5640 5643 5646 5648 5649 5652 5654 5657 5658 5660 5661 5663 5663 5665 5666 5668 5668 5669 5670 5671 5671 5672 5672 5673 5673 5672 5672 5671 5670 5669 5667 5665
5617 5619 5621 5623 5624 5625 5627 5628 5630 5632 5634 5635 5638 5640 5642 5643 5647 5648 5650 5652 5654 5655 5656 5657 5658 5659 5660 5661 5661 5662 5663 5663 5664 5665 5666 5666 5665 5665 5664 5664 5663 5661 5660 5658
5612 5614 5616 5617 5619 5621 5622 5623 5626 5629 5634 5633 5634 5635 5637 5640 5642 5644 5644 5646 5647 5649 5649 5650 5651 5652 5653 5654 5655 5655 5656 5656 5658 5659 5659 5658 5658 5658 5658 5657 5655 5654 5653 5652
5608 5610 5611 5613 5615 5618 5619 5620 5623 5624 5625 5627 5629 5631 5632 5634 5636 5637 5638 5640 5641 5643 5644 5645 5646 5647 5648 5649 5650 5650 5651 5651 5651 5651 5651 5651 5651 5651 5650 5650 5649 5648 5647 5645
5603 5606 5608 5610 5611 5613 5614 5616 5618 5620 5622 5624 5625 5626 5628 5629 5630 5632 5634 5635 5637 5638 5639 5641 5642 5643 5644 5645 5645 5644 5644 5644 5644 5644 5645 5645 5644 5644 5644 5644 5643 5642 5641 5638
5598 5599 5602 5603 5605 5606 5609 5611 5613 5615 5617 5619 5621 5622 5623 5625 5626 5628 5629 5631 5632 5634 5635 5636 5637 5638 5639 5639 5639 5638 5639 5639 5639 5639 5639 5639 5638 5639 5638 5638 5637 5636 5634 5632
5591 5593 5594 5597 5599 5601 5603 5605 5607 5609 5611 5613 5615 5617 5618 5619 5620 5621 5623 5625 5627 5628 5629 5630 5631 5632 5633 5633 5633 5633 5634 5634 5634 5634 5633 5633 5632 5633 5633 5632 5631 5629 5627 5625
5585 5586 5589 5590 5593 5595 5596 5598 5599 5601 5603 5605 5608 5610 5611 5613 5614 5615 5617 5618 5620 5621 5622 5624 5625 5626 5627 5627 5628 5629 5629 5628 5628 5628 5627 5627 5627 5627 5627 5626 5624 5622 5620 5618
Wind_Speed
42 35 37 34 37 33 33 33 33 31 41 45 42 48 39 44 42 42 44 44 40 39 40 41 40 39 37 35 34 37 38 37 36 36 36 36 36 38 36 39 39 38 38 37
48 38 32 34 33 34 33 30 32 33 38 46 45 45 51 38 41 41 39 46 47 43 41 39 36 34 33 36 37 37 38 40 40 40 39 39 38 39 41 41 40 43 42 40
35 35 31 33 33 33 29 25 30 34 33 43 45 48 44 44 41 40 39 38 43 48 47 43 39 35 37 39 39 40 41 41 42 41 42 44 44 41 39 39 39 43 46 46
40 32 28 28 29 28 25 27 29 33 36 38 42 44 40 38 45 41 37 39 40 40 43 44 41 40 39 39 40 42 42 43 44 44 43 43 43 42 41 40 39 41 46 47
41 37 33 28 27 27 26 27 29 31 34 38 42 42 37 39 41 44 44 43 39 36 36 35 34 35 37 39 41 43 40 39 38 39 39 39 40 41 41 42 41 41 44 46
31 31 25 25 27 31 32 28 28 35 39 38 38 39 38 32 30 31 39 48 43 37 33 34 35 35 35 34 33 33 33 34 35 36 37 38 38 40 40 41 41 42 43 44
25 39 33 27 29 28 30 28 30 32 37 36 35 41 35 35 32 31 27 39 39 39 35 35 35 34 32 31 33 34 35 35 35 36 36 38 39 39 39 40 41 41 40 40
19 30 39 30 24 30 33 37 27 27 32 33 35 40 36 33 33 33 31 29 33 33 32 32 30 31 32 33 35 36 36 36 37 38 37 37 38 39 39 39 38 38 39 41
20 22 25 27 29 21 35 32 26 23 24 30 36 37 37 35 32 32 34 32 31 32 33 32 32 33 34 35 36 37 37 38 39 38 37 37 37 37 37 36 37 38 38 38
15 16 21 25 32 28 28 27 25 28 28 30 34 36 38 36 35 33 31 32 35 33 34 35 35 34 36 37 38 38 39 38 38 37 37 36 35 34 35 36 36 36 36 37
11 10 17 22 28 27 28 24 25 25 27 28 30 34 33 34 36 33 33 34 34 34 35 36 36 35 35 35 35 35 37 37 37 36 35 34 34 34 34 32 32 34 33 33
10 9 9 19 19 26 28 29 25 26 21 24 27 32 30 32 35 36 36 38 39 41 43 42 40 37 37 37 38 38 37 36 35 33 32 32 31 31 30 31 33 31 29 30
13 13 14 14 17 23 26 22 23 31 25 21 20 20 23 27 26 26 28 29 31 34 35 36 39 41 41 41 39 37 35 33 32 31 30 30 30 30 31 31 30 27 28 29
12 13 16 17 16 16 22 24 22 24 29 23 26 21 21 21 22 22 24 27 27 29 30 31 34 34 34 32 31 31 30 29 29 29 29 28 28 28 27 28 27 26 27 29
14 15 16 18 19 20 20 22 25 23 20 24 24 23 18 18 19 17 18 22 24 24 25 25 25 26 26 26 26 27 27 28 28 28 27 27 27 27 26 26 28 29 30 30
14 16 16 17 21 22 23 23 22 21 24 21 20 25 23 21 21 17 20 21 21 23 23 23 23 24 24 24 25 26 27 27 26 25 25 27 27 26 26 26 30 31 30 28
15 14 17 15 17 21 24 24 24 24 25 25 26 22 25 23 19 18 21 23 23 22 22 22 22 22 23 24 24 25 23 24 24 25 24 24 23 24 24 27 29 30 28 28
20 17 15 14 17 20 19 23 24 23 24 24 24 26 22 17 16 21 20 23 22 22 23 23 23 22 21 21 22 23 22 23 23 24 23 24 25 25 26 26 25 25 24 27
19 18 17 17 17 17 15 18 20 20 22 21 22 22 17 17 19 19 20 21 22 23 23 22 22 22 22 22 23 22 22 24 26 27 25 25 26 25 23 23 22 23 24 24
15 17 17 15 16 16 12 15 18 14 15 16 18 16 17 18 18 20 20 21 22 22 21 21 21 22 22 22 20 22 23 22 22 24 24 23 23 22 22 21 21 21 22 22
15 16 16 15 14 14 14 16 16 18 14 14 15 17 17 18 20 19 20 20 19 19 19 18 17 17 17 17 18 20 22 24 24 24 24 24 25 24 24 21 20 21 21 22
18 16 14 14 15 14 15 14 15 14 15 15 15 14 16 18 18 19 19 18 18 17 16 15 14 14 14 15 15 15 16 17 19 21 23 23 22 21 21 20 20 19 21 22
20 21 19 18 17 15 14 16 15 17 17 16 17 15 15 16 17 18 18 18 17 16 17 17 16 15 15 15 14 12 13 14 16 17 17 17 18 18 18 19 20 20 21 23
18 20 20 22 23 23 22 19 19 18 18 18 18 17 16 16 18 19 19 18 17 18 18 18 17 15 15 15 15 12 13 14 14 15 16 16 17 18 18 18 19 20 22 24
21 19 21 22 22 23 23 24 25 25 24 23 21 21 20 20 20 21 20 20 20 19 18 18 19 18 16 15 15 15 15 15 15 16 17 17 17 17 18 19 19 21 23 25
21 20 18 19 18 19 22 22 23 25 26 27 27 27 26 25 25 24 24 22 21 21 21 20 20 20 18 18 17 18 18 18 17 17 18 18 18 18 19 20 21 23 26 27
Wind_Direction
200 206 210 211 214 214 219 224 229 225 229 224 221 227 222 228 230 225 223 220 224 227 230 231 232 237 243 246 249 255 256 256 255 263 270 274 276 277 276 277 281 284 284 285
205 204 206 209 211 214 222 224 227 228 230 224 221 225 228 223 229 228 222 224 224 226 227 230 233 237 243 246 248 252 257 261 263 266 267 267 268 272 277 281 284 285 284 285
193 207 206 204 210 212 217 228 235 237 244 232 222 226 229 225 224 224 227 225 229 230 231 229 229 236 242 246 251 255 259 263 264 265 268 272 273 270 269 270 274 281 286 289
180 191 202 202 210 216 220 224 237 237 243 239 226 228 229 232 228 221 220 227 228 230 233 236 237 239 243 248 252 254 258 262 264 265 266 267 268 272 272 272 273 274 279 283
206 218 215 213 214 219 220 228 237 245 247 238 226 228 223 228 228 229 220 228 230 230 233 236 235 238 243 244 247 253 256 261 261 262 263 265 267 270 272 274 274 275 277 279
208 203 184 195 205 215 220 231 242 239 240 243 228 230 221 228 230 229 228 224 234 234 233 235 236 238 240 244 247 249 250 254 257 259 261 262 264 266 268 272 274 274 275 277
194 195 204 209 218 218 224 228 233 237 238 236 225 229 220 220 221 222 223 223 225 231 232 235 237 238 239 246 251 254 256 258 259 258 260 261 262 266 269 271 274 276 276 278
187 190 201 213 222 234 228 220 230 246 251 236 226 226 224 223 220 220 220 226 227 230 235 237 240 244 247 253 255 257 258 258 258 260 262 265 268 271 272 273 273 275 278 281
188 193 204 218 219 218 201 219 233 244 251 232 231 229 230 230 227 228 224 224 228 233 238 242 246 249 251 252 253 255 255 257 259 262 264 267 268 270 271 272 274 277 280 283
183 194 207 205 206 203 203 220 237 244 242 230 230 229 232 232 236 236 234 235 236 239 241 243 245 248 249 250 252 254 256 258 260 263 265 266 267 268 270 273 276 277 280 283
174 197 212 217 214 215 220 225 244 239 236 231 231 233 235 237 238 236 236 237 238 241 242 244 245 246 248 251 255 257 258 260 261 263 263 263 263 265 267 269 273 277 280 283
191 179 179 199 216 225 228 234 235 234 242 236 238 241 240 244 245 244 242 243 244 246 245 248 248 251 254 256 260 260 261 263 263 263 262 262 264 265 264 270 278 279 276 277
206 212 212 212 219 218 218 225 234 229 233 234 247 249 242 237 242 242 239 238 242 244 245 245 247 250 252 253 258 261 262 262 259 258 261 265 264 263 269 276 278 270 278 274
235 230 226 223 215 224 225 229 232 228 235 239 248 252 237 237 235 236 239 238 244 247 245 245 247 251 254 254 254 254 254 257 260 262 262 261 264 269 271 275 271 271 277 284
241 238 235 233 227 225 224 223 226 222 232 239 246 248 235 224 237 232 241 239 241 244 243 243 246 249 252 252 253 255 255 255 257 258 259 262 266 268 269 270 271 274 279 288
238 235 238 233 231 229 234 232 227 226 233 241 248 253 252 237 237 236 237 244 245 244 245 246 247 249 251 253 256 256 256 257 256 257 262 267 267 267 267 271 272 276 282 285
251 236 231 230 232 236 236 239 241 235 235 233 235 245 244 247 243 248 244 245 247 249 249 249 250 250 251 252 254 253 253 253 257 261 265 267 268 265 267 272 279 279 278 282
247 244 244 241 244 240 236 238 242 242 240 238 239 237 246 244 230 239 239 242 247 250 250 250 249 250 251 254 253 254 254 252 256 261 268 270 264 269 274 276 277 275 278 286
237 231 241 241 244 248 238 234 234 237 238 237 232 232 232 227 235 240 240 243 247 249 251 251 249 247 249 252 253 256 259 262 262 265 271 270 267 268 273 272 271 278 283 285
239 234 234 241 247 238 242 236 232 231 230 228 231 228 231 233 231 244 244 244 243 244 247 249 247 247 251 254 258 260 261 262 268 262 267 267 260 272 269 266 279 283 282 292
242 233 235 244 240 243 237 239 242 227 234 230 232 233 238 239 237 239 245 246 244 246 248 249 250 253 256 260 263 265 266 261 259 258 262 264 267 275 262 267 277 278 287 293
237 239 239 237 239 242 238 238 231 227 233 233 240 238 238 241 242 244 245 248 248 248 249 249 249 250 255 258 259 264 267 266 264 266 266 265 266 267 267 271 272 279 287 291
245 246 247 247 244 242 239 237 233 229 234 240 246 247 246 248 247 245 244 247 249 250 246 241 243 253 257 258 261 269 276 273 272 272 274 272 269 268 268 271 274 282 288 293
246 247 247 247 247 251 248 246 246 241 242 243 247 250 253 255 251 245 245 247 248 244 243 241 245 254 263 267 263 267 276 273 272 272 268 264 266 273 271 271 281 289 294 297
241 245 243 242 243 245 250 253 251 252 251 250 247 250 256 261 258 253 245 249 246 246 248 248 253 258 265 269 267 266 266 269 272 271 270 269 267 264 266 275 284 293 298 300
238 241 243 243 248 242 244 244 250 252 253 254 254 252 253 256 257 252 246 248 251 250 251 252 255 260 263 266 267 266 271 272 275 273 270 270 269 268 271 276 284 293 297 298